sat.trackr.live / text

‹ back to catalog

STARLINK-31827

NORAD 59727 · 2024-088V

PAYLOAD ACTIVE UNKNOWN

§ Identity

Operator
Country
US
Launch date
2024-05-10
Launch site
AFWTR
Launch vehicle
Mass (kg)
RCS (m²)

Purposes: comms

External: N2YO · Heavens-Above · Gunter

§ Orbital elements

Epoch: 2026-09-21T09:56:32.327520Z

Period
94.01 min
Inclination
53.1622°
Eccentricity
0.0001245
Mean motion
15.31699610 rev/d
Perigee alt
469.9 km
Apogee alt
471.6 km
Semi-major
6,848.9 km
B*
3.9125e-5
RAAN
309.7146°
Arg perigee
73.2425°
Mean anomaly
286.8713°
Rev number
13,378

§ Raw data

STARLINK-318271 59727U 24088V   26264.41426305  .00000849  00000+0  39125-4 0  99912 59727  53.1622 309.7146 0001245  73.2425 286.8713 15.31699610133784

JSON: /api/v1/satellites/59727 · /tle

For live sub-satellite position, see the globe view (requires WebGL).

§ Visibility from observer

Set your observer location to see the next 7 days of passes ≥ 10°. The values pass through the URL so the page stays shareable.

No JS? Fill the form by hand. The geolocation button needs JavaScript.